Portada
METAR-TAF:

METAR-TAF

Aeropuertos :

Brewster Field

Holdrege, Nebraska, Estados Unidos

latitud: 40-27N, longitud: 099-20W, altitud: 704 m

Observación

El informe se hizo hace 16 minutos, a las 20:55 UTC
Viento 9 kt del norte
Temperatura 0°C
Humedad 74%
Presión 1030 hPa
Visibilidad: 16.1 km
Cielo cubierto a una altura de 2200 ft

METAR: KHDE 232055Z AUTO 36009KT 10SM OVC022 00/M04 A3042 RMK AO2 T00031045

Hora: 16:11 (21:11 UTC)


TAF: falta

Observaciones y pronósticos meteorológicos de más de 4000 aeropuertos (mensajes METAR y TAF).

Los puntos amarillos y rojos representan las estaciones disponibles.

Ponga el ratón en el punto deseado para ver el nombre de la estación.

Haga clic para ver las observaciones y los pronósticos meteorológicos.

Para cambiar el mapa : haga clic en los botones verdes con una cruz de color negro para hacer un zoom, en el botón verde con un guión para alejar o en las flechas verdes para mapas adyacentes.


METAR-TAF: